[[{"header":{"parameterUnit":"m.s-1","parameterCategory":1,"la1":30.2991,"la2":30.254,"lo1":-89.0895,"lo2":-89.0444,"dy":0.0017,"dx":0.0017,"nx":28,"ny":28,"refTime":"2025-03-29T03:00:00:Z","depth":0,"parameterNumber":2,"parameterNumberName":"U-component_of_WINDS"},"data":[0,0,0,0,0,0,0,0,0,0,0,0,0,0,0,0,0,0,0,0,0,0,0,0,0,0,0,0,0,0,0,0,0,0,0,0,0,0,0,0,0,0,0,0,0,0,0,0,0,0,0,0,0,0,0,0,0,0,-1.6459,-1.646,0,-1.6525,-1.6525,-1.6526,-1.6542,-1.6542,-1.6542,-1.6541,-1.6608,-1.661,-1.6612,0,0,0,0,0,0,0,0,0,0,0,0,0,-1.6346,-1.6348,-1.6459,-1.646,-1.646,-1.6525,-1.6525,-1.6526,-1.6543,-1.6542,-1.6541,-1.6541,-1.6607,-1.661,-1.6613,0,0,0,0,0,0,0,0,0,0,0,0,0,-1.6402,-1.6349,-1.6459,-1.6476,-1.6478,-1.6524,-1.6526,-1.6527,-1.6543,-1.6542,-1.6541,-1.6541,-1.6607,-1.661,-1.6613,-1.6646,0,0,-1.6623,-1.6624,0,0,0,0,0,0,0,0,-1.6398,-1.6406,-1.6473,-1.6475,-1.6478,-1.6525,-1.651,-1.6567,-1.6543,-1.6518,-1.6541,-1.654,-1.6581,-1.6586,-1.66,-1.6649,-1.6652,-1.6623,-1.6625,-1.6627,-1.6627,0,0,0,0,0,0,0,-1.6395,-1.6403,-1.6485,-1.6474,-1.6477,-1.648,-1.6488,-1.6521,-1.6552,-1.652,-1.6522,-1.6529,-1.6582,-1.6597,-1.6602,-1.6653,-1.6623,-1.6626,-1.6628,-1.6629,-1.6731,-1.6732,0,0,0,0,0,0,-1.6388,-1.64,-1.6483,-1.6487,-1.6436,-1.6483,-1.6491,-1.651,-1.6552,-1.6558,-1.653,-1.653,-1.6591,-1.6598,-1.6604,-1.6645,-1.6627,-1.663,-1.6631,-1.6731,-1.6731,-1.6732,0,0,0,0,0,0,-1.6385,-1.6395,-1.648,-1.6444,-1.6455,-1.6486,-1.6507,-1.6512,-1.6527,-1.6559,-1.6565,-1.6539,-1.6591,-1.6599,-1.6635,-1.6647,-1.6631,-1.6634,-1.673,-1.6731,-1.6732,-1.6726,0,0,0,0,0,0,-1.6382,-1.6394,-1.6407,-1.6444,-1.6457,-1.651,-1.6508,-1.6514,-1.6532,-1.6533,-1.6569,-1.6575,-1.6591,-1.663,-1.6638,-1.6651,-1.6637,-1.6729,-1.673,-1.6732,-1.6725,-1.6727,-1.6728,0,0,0,0,0,-1.6378,-1.6403,-1.6408,-1.6418,-1.6474,-1.6511,-1.6518,-1.6537,-1.6533,-1.6546,-1.6567,-1.6574,-1.6645,-1.6634,-1.6643,-1.6657,-1.6728,-1.673,-1.6731,-1.6725,-1.6727,-1.6728,0,0,0,0,0,0,-1.6367,-1.6408,-1.6414,-1.6452,-1.6478,-1.6514,-1.6531,-1.6539,-1.6566,-1.6566,-1.6588,-1.6596,-1.663,-1.6647,-1.6634,-1.6691,-1.6686,-1.669,-1.6678,-1.668,-1.6681,-1.6676,-1.6639,0,0,0,0,0,-1.6369,-1.6396,-1.6431,-1.6461,-1.6473,-1.65,-1.6517,-1.6529,-1.6557,-1.6568,-1.6591,-1.6618,-1.6646,-1.6664,-1.6692,-1.6728,-1.6736,-1.6743,-1.6744,-1.6745,-1.6748,-1.6767,-1.677,-1.6738,-1.6738,-1.6738,0,0,-1.6373,-1.6399,-1.6415,-1.6459,-1.6481,-1.6508,-1.6509,-1.6538,-1.6558,-1.6572,-1.6607,-1.6625,-1.6656,-1.6692,-1.6709,-1.6708,-1.6758,-1.6747,-1.6748,-1.675,-1.6769,-1.6772,-1.6775,-1.6739,-1.6739,-1.6739,0,0,-1.6395,-1.6417,-1.6444,-1.6466,-1.6499,-1.6516,-1.6522,-1.6557,-1.657,-1.6605,-1.6616,-1.6641,-1.6689,-1.671,-1.6728,-1.6757,-1.6763,-1.6765,-1.6772,-1.6791,-1.6794,-1.6796,-1.6805,-1.6809,-1.6768,-1.6768,-1.6768,0,-1.6396,-1.6437,-1.6457,-1.6485,-1.6504,-1.6518,-1.6545,-1.6565,-1.6605,-1.6618,-1.6616,-1.6676,-1.6698,-1.6739,-1.6746,-1.676,-1.6767,-1.6761,-1.6792,-1.6794,-1.6797,-1.6806,-1.681,-1.6768,-1.6768,-1.6768,-1.6768,0,-1.6436,-1.6465,-1.6483,-1.6521,-1.6542,-1.6569,-1.6593,-1.6612,-1.6622,-1.6639,-1.6675,-1.6702,-1.6735,-1.6746,-1.6756,-1.6788,-1.6786,-1.6788,-1.6783,-1.6799,-1.6808,-1.6812,-1.6768,-1.6768,-1.6768,-1.6768,0,0,-1.6452,-1.6501,-1.6507,-1.6524,-1.6561,-1.6584,-1.6612,-1.6644,-1.6659,-1.6686,-1.671,-1.675,-1.6752,-1.6771,-1.6784,-1.6801,-1.6821,-1.6801,-1.6802,-1.6803,-1.6856,-1.6854,-1.6858,-1.6826,-1.6827,-1.6828,-1.6853,0,-1.6478,-1.6528,-1.6547,-1.6588,-1.6614,-1.6628,-1.6652,-1.6677,-1.6694,-1.6718,-1.6737,-1.6765,-1.6766,-1.6778,-1.6795,-1.6815,-1.6832,-1.6814,-1.6847,-1.6848,-1.6838,-1.6863,-1.6861,-1.6884,-1.6857,-1.6858,-1.6858,0,-1.6514,-1.6541,-1.6585,-1.6618,-1.663,-1.6651,-1.6682,-1.6705,-1.6734,-1.6745,-1.6766,-1.6778,-1.6807,-1.6802,-1.6842,-1.6829,-1.6844,-1.6856,-1.6857,-1.6861,-1.6854,-1.6866,-1.6892,-1.6895,-1.6864,-1.6864,-1.6863,0,-1.652,-1.6568,-1.66,-1.6614,-1.6654,-1.6668,-1.6686,-1.6713,-1.6732,-1.6759,-1.677,-1.68,-1.6817,-1.6839,-1.6859,-1.6853,-1.6897,-1.6893,-1.6906,-1.6906,-1.6914,-1.6913,-1.6942,-1.6925,-1.6925,-1.6925,-1.6925,0,-1.6545,-1.6571,-1.6603,-1.6622,-1.6652,-1.6673,-1.6701,-1.6719,-1.6744,-1.6767,-1.6781,-1.6802,-1.6827,-1.6851,-1.6867,-1.6897,-1.6904,-1.6914,-1.6917,-1.6912,-1.6911,-1.6921,-1.692,-1.6926,-1.6926,-1.6926,-1.6926,0,-1.6557,-1.6579,-1.6615,-1.6649,-1.6659,-1.6678,-1.6708,-1.6727,-1.6745,-1.6774,-1.6782,-1.6809,-1.6839,-1.6861,-1.6899,-1.6909,-1.6941,-1.6945,-1.6931,-1.6933,-1.6944,-1.6943,-1.6981,-1.6986,-1.6966,-1.6966,-1.6967,0,-1.6571,-1.6591,-1.6628,-1.6644,-1.6662,-1.6688,-1.6706,-1.6728,-1.6746,-1.678,-1.6795,-1.6826,-1.6851,-1.6897,-1.692,-1.6949,-1.6954,-1.6965,-1.6958,-1.6952,-1.6953,-1.6951,-1.6953,-1.6966,-1.6966,-1.6966,-1.6966,0,-1.6594,-1.6604,-1.663,-1.666,-1.6682,-1.6706,-1.6731,-1.6744,-1.6769,-1.679,-1.682,-1.6839,-1.6878,-1.6908,-1.6939,-1.6956,-1.6965,-1.6968,-1.6972,-1.6967,-1.6957,-1.6962,-1.6933,-1.6967,-1.6967,-1.6967,-1.6967,-1.6967,-1.6607,-1.6625,-1.6654,-1.6682,-1.6703,-1.6726,-1.6745,-1.6765,-1.6791,-1.6824,-1.6835,-1.6866,-1.6894,-1.6936,-1.6954,-1.6978,-1.6978,-1.6985,-1.6986,-1.6987,-1.6986,-1.6954,-1.6984,-1.6984,-1.6984,-1.6984,-1.6984,0,-1.663,-1.6649,-1.6675,-1.6709,-1.6731,-1.6738,-1.6766,-1.6784,-1.6811,-1.6836,-1.686,-1.6894,-1.6923,-1.6949,-1.6978,-1.6993,-1.6997,-1.7,-1.6998,-1.7002,-1.6985,-1.6978,-1.6995,-1.6995,-1.6995,-1.6995,-1.6995,-1.6995,-1.6644,-1.6675,-1.6688,-1.673,-1.6749,-1.6779,-1.6794,-1.6815,-1.6835,-1.6872,-1.6896,-1.6913,-1.6938,-1.6969,-1.6996,-1.7003,-1.7012,-1.7013,-1.7021,-1.7005,-1.7003,-1.7002,-1.6995,-1.7016,-1.7016,-1.7036,-1.7036,-1.7036]},{"header":{"parameterUnit":"m.s-1","parameterCategory":1,"la1":30.2991,"la2":30.254,"lo1":-89.0895,"lo2":-89.0444,"dy":0.0017,"dx":0.0017,"nx":28,"ny":28,"refTime":"2025-03-29T03:00:00:Z","depth":0,"parameterNumber":3,"parameterNumberName":"V-component_of_WINDS"},"data":[0,0,0,0,0,0,0,0,0,0,0,0,0,0,0,0,0,0,0,0,0,0,0,0,0,0,0,0,0,0,0,0,0,0,0,0,0,0,0,0,0,0,0,0,0,0,0,0,0,0,0,0,0,0,0,0,0,0,4.3899,4.3899,0,4.3944,4.3945,4.3945,4.3939,4.3939,4.3938,4.3937,4.3982,4.3984,4.3985,0,0,0,0,0,0,0,0,0,0,0,0,0,4.3808,4.381,4.3899,4.3899,4.39,4.3944,4.3945,4.3945,4.394,4.3939,4.3938,4.3937,4.3981,4.3983,4.3986,0,0,0,0,0,0,0,0,0,0,0,0,0,4.385,4.381,4.3899,4.3902,4.3903,4.3944,4.3945,4.3945,4.394,4.3939,4.3938,4.3937,4.398,4.3983,4.3986,4.4025,0,0,4.3995,4.3996,0,0,0,0,0,0,0,0,4.3847,4.3853,4.3901,4.3902,4.3903,4.3935,4.3929,4.3972,4.394,4.3926,4.3937,4.3936,4.3967,4.3971,4.3982,4.4027,4.4029,4.3995,4.3996,4.3998,4.3998,0,0,0,0,0,0,0,4.3844,4.3851,4.3917,4.3902,4.3903,4.3902,4.3907,4.3937,4.3952,4.3927,4.3927,4.3932,4.3967,4.3979,4.3983,4.403,4.3995,4.3997,4.3999,4.4,4.4113,4.4115,0,0,0,0,0,0,4.3841,4.3849,4.3915,4.3918,4.3872,4.3905,4.391,4.3926,4.3952,4.3955,4.3933,4.3932,4.3975,4.3979,4.3984,4.4034,4.3998,4.4,4.4002,4.4112,4.4114,4.4115,0,0,0,0,0,0,4.3839,4.3847,4.3913,4.3883,4.3892,4.3907,4.3925,4.3927,4.3939,4.3956,4.3959,4.3942,4.3974,4.398,4.4016,4.4035,4.4002,4.4004,4.411,4.4112,4.4114,4.4133,0,0,0,0,0,0,4.3836,4.3846,4.3861,4.3884,4.3893,4.3944,4.3926,4.3929,4.3944,4.3943,4.3966,4.3968,4.3974,4.4012,4.4019,4.4039,4.4006,4.4109,4.4111,4.4114,4.413,4.4135,4.4139,0,0,0,0,0,4.3833,4.3863,4.3861,4.3869,4.3912,4.3945,4.3951,4.3957,4.3946,4.3961,4.3973,4.3968,4.4032,4.4015,4.4023,4.4044,4.4107,4.4111,4.4113,4.4128,4.4134,4.4139,0,0,0,0,0,0,4.384,4.3866,4.3864,4.3903,4.3922,4.3944,4.3963,4.3962,4.3984,4.3982,4.3988,4.3994,4.403,4.4041,4.4022,4.4085,4.4068,4.4073,4.4077,4.4083,4.4087,4.4084,4.4009,0,0,0,0,0,4.3846,4.3871,4.3892,4.3924,4.3934,4.3947,4.3962,4.3965,4.3985,4.3993,4.4007,4.4026,4.4051,4.4067,4.4091,4.4132,4.4138,4.4151,4.4155,4.4158,4.4162,4.4188,4.4194,4.4125,4.4125,4.4125,0,0,4.3859,4.3876,4.3891,4.3926,4.3941,4.3968,4.3954,4.3981,4.4001,4.3997,4.4032,4.4044,4.4066,4.4105,4.4123,4.4115,4.4183,4.4162,4.4165,4.4167,4.4192,4.4198,4.4204,4.4127,4.4126,4.4126,0,0,4.3896,4.3911,4.394,4.3957,4.3981,4.399,4.3997,4.4021,4.4028,4.4064,4.4062,4.4086,4.4128,4.4145,4.4159,4.4206,4.4203,4.4214,4.4236,4.4261,4.4267,4.4271,4.429,4.4297,4.4218,4.4218,4.4218,0,4.3908,4.3948,4.3955,4.3984,4.4001,4.4,4.4031,4.4046,4.4076,4.4088,4.4078,4.4134,4.4148,4.4193,4.4205,4.4216,4.4225,4.4211,4.4265,4.427,4.4275,4.4293,4.43,4.4219,4.4219,4.4219,4.4219,0,4.3963,4.3991,4.4012,4.4044,4.4062,4.4092,4.4104,4.4122,4.4125,4.4136,4.4174,4.4192,4.422,4.4231,4.4233,4.4277,4.4272,4.4264,4.4247,4.4283,4.43,4.4307,4.4221,4.422,4.422,4.422,0,0,4.4004,4.4042,4.405,4.4065,4.4093,4.4115,4.4146,4.4175,4.4192,4.4213,4.424,4.4277,4.4271,4.4287,4.4292,4.4313,4.4352,4.4303,4.4304,4.4313,4.4405,4.4411,4.4419,4.4351,4.4352,4.4353,4.4404,0,4.4045,4.41,4.4109,4.4157,4.4185,4.4186,4.4213,4.4233,4.4245,4.4269,4.4282,4.4309,4.4298,4.4308,4.4329,4.4343,4.4371,4.4339,4.4377,4.4378,4.4372,4.4428,4.4434,4.4481,4.441,4.4411,4.4412,0,4.41,4.4125,4.4177,4.4205,4.4216,4.424,4.427,4.4293,4.4317,4.4324,4.4344,4.4347,4.438,4.4362,4.4408,4.4387,4.4403,4.4412,4.4414,4.4418,4.4398,4.4435,4.4496,4.4503,4.4422,4.4421,4.4421,0,4.4127,4.4174,4.4212,4.4225,4.4257,4.4275,4.4289,4.4312,4.4331,4.4356,4.4369,4.4397,4.4413,4.4436,4.4446,4.4432,4.4493,4.4475,4.4501,4.4501,4.4514,4.4513,4.4579,4.4522,4.4522,4.4522,4.4522,0,4.4172,4.4204,4.4225,4.4248,4.4285,4.4295,4.4331,4.4345,4.4367,4.4393,4.4395,4.442,4.4432,4.446,4.4468,4.4507,4.4513,4.4521,4.4523,4.4521,4.4521,4.4532,4.453,4.4524,4.4523,4.4523,4.4523,0,4.4209,4.4223,4.4265,4.4294,4.4302,4.4328,4.4352,4.4376,4.4388,4.4422,4.443,4.4449,4.4482,4.4495,4.4534,4.454,4.4585,4.4584,4.4577,4.4578,4.4604,4.4602,4.4681,4.4693,4.4626,4.4627,4.4627,0,4.4237,4.4262,4.4294,4.4313,4.4329,4.4358,4.4378,4.439,4.441,4.4442,4.4461,4.4494,4.4521,4.4573,4.4591,4.4621,4.4622,4.4648,4.4626,4.4625,4.4625,4.4623,4.4627,4.4651,4.4652,4.4653,4.4653,0,4.4287,4.4294,4.4322,4.4354,4.4378,4.4403,4.4427,4.4443,4.4459,4.4482,4.4516,4.4537,4.4579,4.4612,4.4644,4.4659,4.466,4.466,4.4668,4.4667,4.4663,4.4667,4.4589,4.4658,4.4657,4.4657,4.4657,4.4657,4.4321,4.4345,4.4372,4.4404,4.4425,4.4449,4.4473,4.4489,4.4518,4.4554,4.4559,4.4596,4.4623,4.4667,4.4684,4.4713,4.4707,4.4717,4.472,4.4723,4.4726,4.4658,4.4719,4.4719,4.4719,4.4718,4.4718,0,4.4373,4.4391,4.4421,4.4457,4.4483,4.4482,4.451,4.4532,4.4565,4.459,4.4617,4.4658,4.4691,4.4712,4.4746,4.4766,4.4767,4.4774,4.4773,4.4778,4.4729,4.472,4.4773,4.4773,4.4773,4.4773,4.4773,4.4773,4.4402,4.4443,4.4454,4.4506,4.4524,4.4561,4.4578,4.46,4.4621,4.4666,4.4695,4.4709,4.4733,4.4769,4.48,4.4805,4.4818,4.4826,4.4832,4.4786,4.478,4.4775,4.4767,4.4829,4.4829,4.4878,4.4879,4.4879]}]]